Regional Weather Roundup
Issued by NWS

Home | Current Version | Previous Version | Graphics & Text | Print | Product List | Glossary On
Versions: 1 2 3 4 5 6 7 8 9 10 11 12 13 14 15 16 17 18 19 20 21 22 23 24 25 26 27 28 29 30 31 32 33 34 35 36 37 38 39 40 41 42 43 44 45 46 47 48 49 50
000
ASUS43 KOAX 051610
RWRNE

WEATHER ROUNDUP FOR NEBRASKA
NATIONAL WEATHER SERVICE OMAHA NE
1100 AM CDT SUN JUL 05 2015

NOTES: SATELLITE DATA IS BEING USED TO AUGMENT CLOUD COVER ABOVE
       12000 FEET.
       "FAIR" INDICATES FEW OR NO CLOUDS BELOW 12,000 FEET WITH NO
       SIGNIFICANT WEATHER AND/OR OBSTRUCTIONS TO VISIBILITY.

  * THESE STATIONS DO NOT REPORT WEATHER SUCH AS RAIN...SNOW OR FOG.

NEZ001>004-019>022-054>056-051700-
NEBRASKA PANHANDLE

CITY           SKY/WX    TMP DP  RH WIND       PRES   REMARKS
SCOTTSBLUFF    SUNNY     83  64  52 CALM      29.87S
ALLIANCE       SUNNY     81  66  60 SW8       29.85F
CHADRON        PTSUNNY   82  66  58 CALM      29.79S
KIMBALL          N/A    N/A N/A N/A MISG        N/A
SIDNEY         SUNNY     87  54  32 SW5       29.91S
$$

NEZ057>060-069>072-079>082-051700-
SOUTHWEST NEBRASKA

CITY           SKY/WX    TMP DP  RH WIND       PRES   REMARKS
NORTH PLATTE   SUNNY     85  65  51 S10       29.83F
IMPERIAL       SUNNY     84  62  47 S7        29.84F
LEXINGTON      SUNNY     83  69  62 SE10G16   29.85F
MCCOOK         SUNNY     89  62  40 S12       29.83F
OGALLALA       SUNNY     82  63  52 CALM      29.84S
$$

NEZ005>010-023>029-035>040-094-051700-
NORTH CENTRAL NEBRASKA

CITY           SKY/WX    TMP DP  RH WIND       PRES   REMARKS
VALENTINE      SUNNY     85  67  54 S14       29.80S
AINSWORTH      SUNNY     83  68  59 S14       29.83R
BROKEN BOW     SUNNY     81  69  67 SE14G25   29.86S
O`NEILL        MOSUNNY   80  69  71 SE13G22   29.85F
ORD            MOSUNNY   78  67  68 SE16      29.85F
THEDFORD       SUNNY     83  67  57 S10       29.83F
$$

NEZ041-046>049-061>064-073>077-083>087-051700-
SOUTH CENTRAL NEBRASKA

CITY           SKY/WX    TMP DP  RH WIND       PRES   REMARKS
GRAND ISLAND   MOSUNNY   79  69  71 SE14      29.90F
AURORA         PTSUNNY   78  72  81 SE12      29.90S
HASTINGS       SUNNY     83  70  64 S10       29.89R
HEBRON         MOSUNNY   82  69  65 S13G20    29.88F
HOLDREGE       SUNNY     82  67  60 SE13      29.86F
KEARNEY *      SUNNY     81  70  69 SE13      29.87S
YORK           MOSUNNY   75  72  88 E14       29.91F
$$

NEZ011>018-030>034-042>045-051700-
NORTHEAST NEBRASKA

CITY           SKY/WX    TMP DP  RH WIND       PRES   REMARKS
NORFOLK        PTSUNNY   78  65  63 SE14      29.86F
ALBION         PTSUNNY   76  68  74 SE15      29.89S
BLAIR          LGT RAIN  69  65  84 E3        29.98S
COLUMBUS *     PTSUNNY   72  64  78 SE9G16    29.88F
FREMONT        LGT RAIN  70  67  91 E5        29.94F
TEKAMAH        LGT RAIN  71  68  90 SE9       29.92F FOG
WAYNE          PTSUNNY   77  70  80 S10       29.87F
$$

NEZ050>053-065>068-078-088>093-051700-
SOUTHEAST NEBRASKA

CITY           SKY/WX    TMP DP  RH WIND       PRES   REMARKS
LINCOLN        CLOUDY    73  68  84 NE17      29.94R HAZE
OMAHA EPPLEY   CLOUDY    72  66  81 N7        29.97R
BEATRICE       CLOUDY    80  70  73 SE13G18   29.90F
FALLS CITY     CLOUDY    79  70  74 S14       29.94S
NEBRASKA CITY  CLOUDY    75  66  73 SE8       29.95R
PLATTSMOUTH    CLOUDY    73  67  81 SE8       29.95R HAZE
$$

NEZ044-045-051>053-067-051700-
OMAHA AREA

CITY           SKY/WX    TMP DP  RH WIND       PRES   REMARKS
OMAHA EPPLEY   CLOUDY    72  66  81 N7        29.97R
BLAIR          LGT RAIN  69  65  84 E3        29.98S
FREMONT        LGT RAIN  70  67  91 E5        29.94F
MILLARD        CLOUDY    72  67  82 N7        29.98R
OFFUTT AFB     CLOUDY    72  67  83 N6        29.95R
PLATTSMOUTH    CLOUDY    73  67  81 SE8       29.95R HAZE
WAHOO          LGT RAIN  69  67  92 E8        29.94F
$$


USA.gov is the U.S. government's official web portal to all federal, state and local government web resources and services.